San Antonio, Texas, United States (78266)
Lat: 29.42N, Lon: 98.49W
Wx Zone: TXZ206
Local Info
Past Weather Observations for Today

NOTE: This archive is for the closest National Weather Service station to San Antonio. Information may differ from the station used for current weather conditions.

Click here for Long-term Archive

Time Weather Temperature Dewpoint Humidity Pressure Winds Precip Visibility
07:52
Mostly Cloudy
81°F / 27°C 75°F / 24°C 84% 29.98 in
(1015 mb)
SSE 6.9 mph
(SSE 11 kph)
- 10SM
07:37
Mostly Cloudy
81°F / 27°C 75°F / 24°C 84% 29.98 in
(1015 mb)
SSE 10.4 mph
(SSE 17 kph)
- 10SM
07:22
Partly Cloudy
79°F / 26°C 75°F / 24°C 89% 29.98 in
(1015 mb)
SE 6.9 mph
(SE 11 kph)
- 10SM
07:12
Partly Cloudy
79°F / 26°C 75°F / 24°C 89% 29.98 in
(1015 mb)
SE 6.9 mph
(SE 11 kph)
- 10SM
06:58
Partly Cloudy
77°F / 25°C 75°F / 24°C 94% 29.98 in
(1015 mb)
SE 5.8 mph
(SE 9 kph)
- 10SM
06:40
Mostly Cloudy
77°F / 25°C 75°F / 24°C 94% 29.98 in
(1015 mb)
SE 5.8 mph
(SE 9 kph)
- 10SM
06:07
Mostly Cloudy
75°F / 24°C 73°F / 23°C 94% 29.95 in
(1014 mb)
SE 4.6 mph
(SE 7 kph)
- 10SM
05:58
Partly Cloudy
75°F / 24°C 73°F / 23°C 94% 29.95 in
(1014 mb)
SSE 4.6 mph
(SSE 7 kph)
- 10SM
05:33
Partly Cloudy
77°F / 25°C 73°F / 23°C 89% 29.95 in
(1014 mb)
SSE 5.8 mph
(SSE 9 kph)
- 10SM
05:18
Mostly Cloudy
77°F / 25°C 73°F / 23°C 89% 29.95 in
(1014 mb)
SE 5.8 mph
(SE 9 kph)
- 10SM
04:58
Partly Cloudy
77°F / 25°C 73°F / 23°C 89% 29.95 in
(1014 mb)
SE 5.8 mph
(SE 9 kph)
- 10SM
04:33
Mostly Cloudy
77°F / 25°C 73°F / 23°C 89% 29.95 in
(1014 mb)
SSE 3.5 mph
(SSE 6 kph)
- 10SM
04:28
Partly Cloudy
77°F / 25°C 73°F / 23°C 89% 29.95 in
(1014 mb)
SSE 4.6 mph
(SSE 7 kph)
- 10SM
04:23
Mostly Cloudy
77°F / 25°C 73°F / 23°C 89% 29.95 in
(1014 mb)
SE 4.6 mph
(SE 7 kph)
- 10SM
03:58
Mostly Cloudy
77°F / 25°C 73°F / 23°C 89% 29.95 in
(1014 mb)
SE 5.8 mph
(SE 9 kph)
- 10SM
03:28
Overcast
79°F / 26°C 73°F / 23°C 84% 29.95 in
(1014 mb)
SE 4.6 mph
(SE 7 kph)
- 10SM
03:23
Mostly Cloudy
79°F / 26°C 73°F / 23°C 84% 29.95 in
(1014 mb)
SE 5.8 mph
(SE 9 kph)
- 10SM
03:18
Mostly Cloudy
79°F / 26°C 73°F / 23°C 84% 29.95 in
(1014 mb)
SSE 5.8 mph
(SSE 9 kph)
- 10SM
03:13
Mostly Cloudy
79°F / 26°C 73°F / 23°C 84% 29.95 in
(1014 mb)
SSE 4.6 mph
(SSE 7 kph)
- 10SM
03:08
Mostly Cloudy
79°F / 26°C 73°F / 23°C 84% 29.95 in
(1014 mb)
SE 5.8 mph
(SE 9 kph)
- 10SM
02:58
Mostly Cloudy
79°F / 26°C 73°F / 23°C 84% 29.95 in
(1014 mb)
SE 5.8 mph
(SE 9 kph)
- 10SM
02:43
Mostly Cloudy
79°F / 26°C 73°F / 23°C 84% 29.95 in
(1014 mb)
SSE 5.8 mph
(SSE 9 kph)
- 10SM
02:38
Mostly Cloudy
79°F / 26°C 73°F / 23°C 84% 29.95 in
(1014 mb)
SSE 6.9 mph
(SSE 11 kph)
- 10SM
02:33
Mostly Cloudy
79°F / 26°C 73°F / 23°C 84% 29.95 in
(1014 mb)
S 6.9 mph
(S 11 kph)
- 10SM
01:58
Mostly Cloudy
79°F / 26°C 73°F / 23°C 84% 29.95 in
(1014 mb)
SSE 5.8 mph
(SSE 9 kph)
- 10SM
01:18
Partly Cloudy
79°F / 26°C 73°F / 23°C 84% 29.95 in
(1014 mb)
SE 8.1 mph
(SE 13 kph)
- 10SM
01:08
Mostly Cloudy
79°F / 26°C 73°F / 23°C 84% 29.95 in
(1014 mb)
SSE 6.9 mph
(SSE 11 kph)
- 10SM
00:58
Mostly Cloudy
79°F / 26°C 73°F / 23°C 84% 29.95 in
(1014 mb)
SSE 11.5 mph
(SSE 19 kph)
- 10SM
00:08
Mostly Cloudy
79°F / 26°C 73°F / 23°C 84% 29.95 in
(1014 mb)
SSE 12.7 mph
(SSE 20 kph)
- 10SM
Time Weather Temperature Dewpoint Humidity Pressure Winds Precip Visibility


Weather for websites

WeatherForYou.com, LLC is not responsible for any damages or problems caused by this service. Current weather conditions are obtained from the closest station including government and personal stations which may have varying degrees of accuracy. Weather forecasts are derived from the NOAA NDFD. Like all things, this site belongs to Jesus Christ... He just trusts me to maintain it. If you have any questions or comments email webmaster@weatherforyou.com

Copyright © 2014, WeatherForYou.com LLC. All rights reserved.